Aérodrome :
LOGIN :

S'inscrire | Disclaimer

   EN    FR    IT 

 










Légende :    VFR   VFR Marginal   IFR   IFR Intensif   IFR Très Intensif
Visi : 
Plafond : 
>= 8 km
>= 3000ft
5 à 8 km
1000 à 3000 ft
1500m à 5 km
500 à 1000 ft
800 à 1500m
200 à 500 ft
< 800m
< 200 ft
Symboles :   Orages  Brouillard  Fortes neiges  Fortes précipitations  Vent > 20 kt
SIGMETs :   Divers  Orages  Givrage  Turbulence  Onde Orograph.  Cendres Volcan.







- Altitude de l'aérodrome : 121 ft
- Code IATA : HUY
- Voir les cartes d'approche


EGNJ - Humberside

DERNIER METAR :
  • 222150Z 24006KT 3000 BR SCT003 BKN023 01/01 Q0996

METARs EXPIRÉS :
  • 222120Z 22003KT 3000 BR SCT003 BKN023 01/01 Q0996
  • 222050Z 21004KT 4000 BR BKN004 BKN020 01/01 Q0996
  • 222020Z 20005KT 5000 BR BKN002 01/01 Q0996
  • 221950Z 21004KT 5000 -RASN SCT002 BKN015 01/01 Q0996
  • 221920Z 23003KT 5000 -RASN SCT010 BKN013 01/00 Q0996

TAF TAF EGNJ
Valide du 22 à 21h jusqu'au 23 à 06h UTC


222001Z 2221/2306 28004KT 9999 SCT015
TEMPO 2221/2223 2000 SHRASN BKN002
ATIS : +44 1652 682 020
Pas de NOTAMs connus pour ce terrain.



MET'MAP, la Météo Aéronautique d'un coup d'oeil ! - Copyright ORBIFLY Décembre 2007 - Disclaimer

ORBIFLY MET'MAP TEAM :

Programmation & Développement : Alexandra Zaïnal
Conception & Développement : Baudouin d'Aumeries
Co-Programmation & Développement : Marc-Olivier Méhu
Soutien technique & logistique : Manuel Goepfert

Contact : metmap@orbifly.com




SOURCES & CREDITS :

   NOAA